QPF
0.00 0.00 0.00 0.00 0.00 0.00 0.01 0.02 0.03 0.01 0.00 0.00 0.00 0.00 0.00 0.00 0.00 0.00 0.00 0.00 0.00 0.00 0.00 0.00 0.01 0.02 0.02 0.02 0.01 0.01 0.02 0.02 0.03 0.04 0.05 0.05 0.05 0.05 0.04 0.04 0.08 0.11 0.07 0.04
0.00 0.00 0.00 0.00 0.00 0.00 0.00 0.00 0.00 0.01 0.01 0.00 0.00 0.00 0.00 0.00 0.00 0.00 0.00 0.00 0.00 0.00 0.00 0.00 0.00 0.00 0.01 0.01 0.01 0.01 0.01 0.01 0.02 0.03 0.04 0.04 0.03 0.02 0.03 0.03 0.06 0.07 0.04 0.04
0.00 0.00 0.00 0.00 0.00 0.00 0.00 0.00 0.00 0.00 0.00 0.00 0.00 0.02 0.02 0.01 0.00 0.00 0.00 0.00 0.00 0.00 0.00 0.00 0.00 0.00 0.00 0.00 0.00 0.01 0.01 0.01 0.02 0.01 0.01 0.02 0.02 0.03 0.03 0.03 0.04 0.03 0.03 0.04
0.00 0.00 0.00 0.00 0.00 0.00 0.00 0.00 0.00 0.00 0.00 0.00 0.00 0.02 0.02 0.01 0.01 0.00 0.00 0.00 0.00 0.00 0.00 0.00 0.00 0.00 0.00 0.00 0.00 0.00 0.00 0.01 0.02 0.01 0.02 0.02 0.03 0.04 0.04 0.03 0.04 0.03 0.03 0.04
0.00 0.00 0.00 0.00 0.00 0.00 0.00 0.00 0.00 0.00 0.00 0.00 0.00 0.01 0.02 0.02 0.02 0.01 0.00 0.00 0.00 0.00 0.00 0.00 0.00 0.00 0.00 0.00 0.00 0.00 0.01 0.02 0.02 0.02 0.03 0.03 0.02 0.03 0.03 0.04 0.06 0.07 0.06 0.07
0.00 0.00 0.00 0.00 0.00 0.00 0.00 0.00 0.00 0.00 0.00 0.01 0.00 0.00 0.02 0.03 0.03 0.02 0.01 0.00 0.00 0.00 0.00 0.00 0.00 0.00 0.00 0.00 0.00 0.01 0.01 0.02 0.02 0.02 0.01 0.02 0.02 0.02 0.03 0.05 0.07 0.07 0.05 0.04
0.00 0.00 0.00 0.00 0.00 0.00 0.00 0.00 0.01 0.03 0.02 0.01 0.00 0.00 0.01 0.02 0.02 0.01 0.00 0.00 0.00 0.00 0.00 0.00 0.00 0.00 0.00 0.00 0.00 0.00 0.01 0.01 0.02 0.01 0.01 0.01 0.01 0.02 0.03 0.03 0.04 0.03 0.03 0.04
0.00 0.00 0.00 0.00 0.00 0.00 0.00 0.00 0.00 0.01 0.02 0.00 0.00 0.01 0.01 0.00 0.00 0.00 0.00 0.00 0.00 0.00 0.00 0.00 0.00 0.00 0.00 0.00 0.00 0.00 0.00 0.01 0.01 0.01 0.01 0.01 0.01 0.02 0.03 0.04 0.03 0.03 0.03 0.03
0.00 0.00 0.00 0.00 0.00 0.00 0.00 0.00 0.00 0.01 0.00 0.00 0.00 0.02 0.02 0.01 0.00 0.00 0.00 0.00 0.00 0.00 0.00 0.00 0.00 0.01 0.01 0.00 0.00 0.00 0.00 0.01 0.01 0.01 0.02 0.02 0.02 0.03 0.05 0.04 0.03 0.03 0.03 0.03
0.00 0.00 0.00 0.00 0.00 0.00 0.00 0.00 0.01 0.01 0.01 0.00 0.01 0.05 0.03 0.01 0.00 0.00 0.00 0.00 0.00 0.00 0.00 0.00 0.01 0.02 0.02 0.01 0.00 0.00 0.00 0.00 0.00 0.01 0.02 0.02 0.02 0.02 0.03 0.03 0.03 0.04 0.05 0.04
0.00 0.00 0.00 0.00 0.00 0.00 0.00 0.00 0.00 0.00 0.00 0.00 0.01 0.04 0.05 0.02 0.00 0.00 0.00 0.00 0.00 0.00 0.00 0.01 0.01 0.01 0.01 0.01 0.00 0.00 0.00 0.00 0.00 0.01 0.02 0.02 0.01 0.02 0.02 0.02 0.02 0.02 0.02 0.02
0.00 0.00 0.00 0.00 0.00 0.00 0.00 0.00 0.00 0.00 0.00 0.00 0.01 0.03 0.02 0.02 0.01 0.00 0.00 0.00 0.00 0.00 0.00 0.00 0.00 0.01 0.01 0.00 0.01 0.00 0.00 0.01 0.01 0.02 0.02 0.02 0.02 0.02 0.02 0.02 0.01 0.02 0.03 0.03
0.00 0.00 0.00 0.00 0.00 0.00 0.00 0.00 0.00 0.00 0.00 0.00 0.00 0.01 0.01 0.01 0.00 0.00 0.00 0.00 0.00 0.00 0.00 0.00 0.00 0.00 0.01 0.00 0.02 0.01 0.01 0.03 0.07 0.04 0.02 0.02 0.03 0.03 0.02 0.02 0.01 0.02 0.02 0.02
0.00 0.00 0.00 0.00 0.00 0.00 0.00 0.00 0.00 0.00 0.00 0.00 0.01 0.01 0.01 0.00 0.00 0.00 0.00 0.00 0.00 0.00 0.00 0.00 0.00 0.01 0.01 0.01 0.02 0.02 0.01 0.01 0.02 0.02 0.01 0.02 0.01 0.02 0.02 0.02 0.02 0.02 0.02 0.02
0.00 0.00 0.00 0.00 0.01 0.00 0.00 0.00 0.00 0.00 0.00 0.01 0.03 0.02 0.01 0.02 0.02 0.01 0.01 0.02 0.01 0.00 0.00 0.01 0.01 0.01 0.01 0.01 0.02 0.01 0.01 0.00 0.00 0.00 0.00 0.00 0.00 0.01 0.02 0.02 0.02 0.02 0.03 0.03
0.00 0.00 0.00 0.00 0.00 0.01 0.00 0.00 0.00 0.00 0.00 0.02 0.03 0.01 0.01 0.02 0.03 0.04 0.05 0.07 0.02 0.00 0.00 0.01 0.01 0.00 0.00 0.00 0.00 0.01 0.00 0.00 0.00 0.01 0.01 0.01 0.01 0.02 0.03 0.03 0.02 0.02 0.03 0.04
0.01 0.02 0.01 0.00 0.01 0.02 0.01 0.00 0.00 0.00 0.00 0.01 0.01 0.01 0.00 0.01 0.01 0.02 0.02 0.02 0.02 0.02 0.02 0.02 0.01 0.01 0.00 0.00 0.01 0.01 0.01 0.01 0.02 0.02 0.02 0.03 0.03 0.03 0.03 0.02 0.02 0.03 0.04 0.04
0.01 0.02 0.01 0.01 0.01 0.03 0.03 0.01 0.01 0.00 0.00 0.01 0.01 0.01 0.01 0.01 0.01 0.01 0.01 0.00 0.00 0.01 0.01 0.01 0.01 0.01 0.01 0.01 0.01 0.01 0.01 0.02 0.02 0.02 0.03 0.04 0.04 0.03 0.03 0.03 0.03 0.05 0.05 0.05
0.00 0.00 0.00 0.01 0.01 0.02 0.02 0.01 0.01 0.01 0.02 0.01 0.01 0.00 0.01 0.01 0.01 0.01 0.01 0.00 0.00 0.00 0.00 0.00 0.01 0.01 0.01 0.01 0.01 0.01 0.01 0.01 0.01 0.02 0.04 0.05 0.07 0.07 0.06 0.05 0.05 0.05 0.04 0.05
0.00 0.00 0.00 0.01 0.02 0.02 0.02 0.01 0.00 0.01 0.02 0.01 0.01 0.01 0.01 0.01 0.03 0.02 0.01 0.01 0.00 0.01 0.00 0.00 0.01 0.01 0.01 0.01 0.02 0.02 0.01 0.01 0.01 0.02 0.04 0.06 0.07 0.08 0.08 0.09 0.10 0.07 0.05 0.05
0.00 0.00 0.00 0.02 0.03 0.03 0.02 0.02 0.01 0.02 0.02 0.02 0.01 0.01 0.01 0.02 0.02 0.02 0.01 0.01 0.00 0.01 0.01 0.01 0.01 0.01 0.01 0.01 0.01 0.02 0.01 0.01 0.01 0.01 0.01 0.02 0.03 0.05 0.06 0.07 0.09 0.06 0.05 0.05
0.00 0.00 0.00 0.02 0.05 0.06 0.02 0.01 0.02 0.03 0.01 0.01 0.02 0.01 0.01 0.01 0.01 0.03 0.03 0.02 0.01 0.01 0.01 0.01 0.01 0.00 0.01 0.01 0.01 0.01 0.01 0.01 0.00 0.00 0.00 0.00 0.01 0.01 0.02 0.02 0.02 0.03 0.03 0.04
0.00 0.01 0.02 0.02 0.03 0.03 0.02 0.01 0.01 0.01 0.00 0.00 0.01 0.03 0.02 0.01 0.01 0.01 0.03 0.03 0.02 0.01 0.01 0.01 0.01 0.00 0.01 0.01 0.01 0.01 0.01 0.01 0.01 0.00 0.00 0.01 0.01 0.01 0.01 0.02 0.02 0.02 0.02 0.02
0.01 0.01 0.01 0.02 0.02 0.01 0.02 0.03 0.01 0.00 0.00 0.00 0.00 0.02 0.04 0.02 0.01 0.01 0.03 0.04 0.02 0.02 0.01 0.01 0.01 0.01 0.01 0.01 0.01 0.01 0.01 0.01 0.01 0.01 0.01 0.01 0.01 0.01 0.01 0.02 0.01 0.01 0.01 0.02
0.02 0.01 0.01 0.01 0.02 0.02 0.01 0.01 0.00 0.00 0.00 0.00 0.00 0.00 0.01 0.02 0.02 0.01 0.01 0.04 0.04 0.04 0.04 0.03 0.02 0.01 0.01 0.01 0.01 0.02 0.02 0.02 0.02 0.01 0.01 0.01 0.00 0.01 0.02 0.02 0.02 0.02 0.02 0.02
0.03 0.03 0.02 0.02 0.02 0.02 0.01 0.00 0.00 0.00 0.01 0.00 0.00 0.00 0.01 0.01 0.01 0.01 0.01 0.02 0.02 0.04 0.06 0.09 0.08 0.05 0.02 0.01 0.01 0.02 0.02 0.02 0.02 0.01 0.01 0.01 0.01 0.01 0.01 0.02 0.03 0.03 0.03 0.03
MSLP
1002.62 1003.33 1003.91 1004.34 1004.64 1004.84 1004.98 1005.10 1005.24 1005.41 1005.61 1005.84 1006.07 1006.31 1006.54 1006.78 1007.01 1007.27 1007.54 1007.84 1008.16 1008.48 1008.81 1009.13 1009.43 1009.73 1010.02 1010.31 1010.61 1010.92 1011.23 1011.55 1011.86 1012.17 1012.46 1012.74 1013.00 1013.26 1013.51 1013.76 1014.02 1014.28 1014.54 1014.81
1003.36 1003.88 1004.25 1004.50 1004.67 1004.79 1004.92 1005.09 1005.31 1005.55 1005.81 1006.05 1006.24 1006.39 1006.49 1006.57 1006.67 1006.82 1007.03 1007.32 1007.67 1008.08 1008.50 1008.91 1009.29 1009.63 1009.93 1010.21 1010.49 1010.78 1011.09 1011.44 1011.81 1012.19 1012.56 1012.91 1013.23 1013.51 1013.75 1013.96 1014.16 1014.35 1014.55 1014.77
1003.93 1004.23 1004.41 1004.50 1004.57 1004.66 1004.84 1005.10 1005.43 1005.78 1006.11 1006.36 1006.51 1006.54 1006.48 1006.38 1006.31 1006.31 1006.43 1006.69 1007.07 1007.55 1008.07 1008.59 1009.06 1009.47 1009.81 1010.11 1010.38 1010.67 1010.99 1011.36 1011.78 1012.22 1012.67 1013.08 1013.44 1013.74 1013.97 1014.16 1014.30 1014.45 1014.59 1014.77
1004.28 1004.40 1004.41 1004.39 1004.42 1004.55 1004.81 1005.21 1005.69 1006.17 1006.57 1006.83 1006.90 1006.79 1006.54 1006.22 1005.93 1005.75 1005.75 1005.95 1006.34 1006.88 1007.50 1008.13 1008.71 1009.21 1009.62 1009.96 1010.26 1010.55 1010.89 1011.29 1011.74 1012.23 1012.72 1013.18 1013.58 1013.90 1014.12 1014.28 1014.40 1014.50 1014.61 1014.75
1004.41 1004.39 1004.30 1004.24 1004.29 1004.51 1004.91 1005.47 1006.10 1006.70 1007.17 1007.42 1007.40 1007.12 1006.65 1006.09 1005.55 1005.16 1005.00 1005.11 1005.47 1006.05 1006.75 1007.50 1008.20 1008.80 1009.30 1009.70 1010.04 1010.37 1010.73 1011.14 1011.62 1012.14 1012.67 1013.16 1013.58 1013.90 1014.13 1014.27 1014.36 1014.44 1014.53 1014.66
1004.37 1004.26 1004.13 1004.09 1004.21 1004.55 1005.11 1005.83 1006.62 1007.32 1007.83 1008.04 1007.91 1007.46 1006.76 1005.94 1005.15 1004.54 1004.20 1004.18 1004.50 1005.08 1005.84 1006.67 1007.48 1008.19 1008.79 1009.26 1009.66 1010.03 1010.42 1010.86 1011.36 1011.90 1012.44 1012.94 1013.37 1013.70 1013.93 1014.06 1014.15 1014.22 1014.31 1014.45
1004.21 1004.06 1003.94 1003.96 1004.18 1004.66 1005.36 1006.23 1007.13 1007.90 1008.42 1008.58 1008.33 1007.70 1006.79 1005.73 1004.71 1003.88 1003.36 1003.22 1003.45 1004.01 1004.79 1005.68 1006.56 1007.37 1008.05 1008.61 1009.08 1009.50 1009.93 1010.39 1010.91 1011.46 1012.01 1012.52 1012.95 1013.28 1013.51 1013.65 1013.73 1013.81 1013.92 1014.07
1003.98 1003.83 1003.76 1003.85 1004.18 1004.77 1005.59 1006.55 1007.50 1008.30 1008.79 1008.88 1008.52 1007.74 1006.66 1005.42 1004.21 1003.20 1002.53 1002.26 1002.41 1002.91 1003.67 1004.57 1005.50 1006.36 1007.11 1007.74 1008.27 1008.75 1009.22 1009.72 1010.26 1010.82 1011.38 1011.90 1012.34 1012.67 1012.90 1013.05 1013.15 1013.25 1013.37 1013.56
1003.77 1003.65 1003.62 1003.78 1004.19 1004.84 1005.70 1006.68 1007.63 1008.40 1008.83 1008.84 1008.39 1007.52 1006.33 1004.98 1003.66 1002.54 1001.76 1001.39 1001.44 1001.86 1002.57 1003.44 1004.35 1005.23 1006.01 1006.69 1007.27 1007.81 1008.33 1008.87 1009.44 1010.03 1010.61 1011.14 1011.60 1011.95 1012.19 1012.36 1012.48 1012.59 1012.74 1012.95
1003.64 1003.55 1003.57 1003.77 1004.20 1004.85 1005.68 1006.60 1007.47 1008.14 1008.49 1008.42 1007.92 1007.01 1005.80 1004.43 1003.09 1001.95 1001.11 1000.67 1000.64 1000.96 1001.58 1002.37 1003.22 1004.06 1004.84 1005.54 1006.16 1006.75 1007.32 1007.92 1008.54 1009.16 1009.78 1010.34 1010.82 1011.19 1011.46 1011.65 1011.80 1011.94 1012.11 1012.34
1003.67 1003.61 1003.66 1003.86 1004.25 1004.82 1005.54 1006.32 1007.03 1007.56 1007.80 1007.66 1007.14 1006.25 1005.10 1003.81 1002.55 1001.45 1000.63 1000.16 1000.06 1000.29 1000.78 1001.45 1002.20 1002.97 1003.70 1004.38 1005.03 1005.65 1006.28 1006.94 1007.61 1008.30 1008.95 1009.56 1010.07 1010.49 1010.79 1011.02 1011.19 1011.35 1011.54 1011.78
1003.88 1003.86 1003.92 1004.08 1004.39 1004.83 1005.36 1005.93 1006.44 1006.78 1006.89 1006.68 1006.16 1005.35 1004.32 1003.18 1002.06 1001.08 1000.33 999.86 999.71 999.84 1000.20 1000.72 1001.34 1002.00 1002.66 1003.31 1003.95 1004.61 1005.29 1006.00 1006.74 1007.48 1008.20 1008.85 1009.41 1009.87 1010.22 1010.48 1010.69 1010.87 1011.08 1011.32
1004.30 1004.31 1004.36 1004.48 1004.67 1004.93 1005.24 1005.55 1005.81 1005.95 1005.90 1005.62 1005.11 1004.39 1003.52 1002.57 1001.63 1000.80 1000.15 999.73 999.54 999.58 999.80 1000.18 1000.65 1001.18 1001.75 1002.35 1002.99 1003.66 1004.39 1005.16 1005.95 1006.75 1007.52 1008.22 1008.83 1009.33 1009.72 1010.03 1010.27 1010.48 1010.70 1010.94
1004.88 1004.93 1004.98 1005.03 1005.09 1005.16 1005.23 1005.27 1005.27 1005.17 1004.96 1004.60 1004.10 1003.47 1002.75 1001.98 1001.24 1000.58 1000.04 999.66 999.46 999.42 999.52 999.76 1000.09 1000.50 1000.98 1001.53 1002.15 1002.84 1003.59 1004.40 1005.24 1006.08 1006.89 1007.62 1008.27 1008.81 1009.24 1009.58 1009.86 1010.11 1010.35 1010.60
1005.54 1005.64 1005.69 1005.68 1005.62 1005.50 1005.34 1005.12 1004.86 1004.53 1004.15 1003.70 1003.18 1002.62 1002.02 1001.42 1000.84 1000.32 999.89 999.56 999.35 999.25 999.26 999.38 999.60 999.91 1000.32 1000.82 1001.43 1002.12 1002.89 1003.72 1004.58 1005.44 1006.26 1007.01 1007.67 1008.23 1008.69 1009.07 1009.39 1009.67 1009.94 1010.22
1006.18 1006.32 1006.37 1006.32 1006.15 1005.88 1005.51 1005.06 1004.57 1004.03 1003.48 1002.92 1002.37 1001.83 1001.31 1000.83 1000.37 999.97 999.62 999.33 999.12 998.98 998.93 998.97 999.11 999.36 999.72 1000.20 1000.79 1001.48 1002.26 1003.09 1003.94 1004.79 1005.59 1006.33 1006.99 1007.55 1008.02 1008.43 1008.78 1009.11 1009.42 1009.73
1006.70 1006.85 1006.90 1006.80 1006.55 1006.16 1005.63 1005.00 1004.32 1003.61 1002.91 1002.25 1001.64 1001.09 1000.61 1000.18 999.80 999.47 999.17 998.92 998.72 998.57 998.49 998.49 998.60 998.82 999.17 999.64 1000.22 1000.91 1001.67 1002.48 1003.31 1004.11 1004.87 1005.57 1006.19 1006.74 1007.22 1007.64 1008.03 1008.39 1008.75 1009.11
1006.97 1007.11 1007.12 1006.99 1006.67 1006.19 1005.56 1004.82 1004.00 1003.17 1002.37 1001.62 1000.95 1000.38 999.89 999.48 999.14 998.84 998.58 998.36 998.17 998.03 997.96 997.98 998.09 998.33 998.68 999.16 999.74 1000.41 1001.15 1001.92 1002.68 1003.42 1004.12 1004.75 1005.33 1005.84 1006.31 1006.74 1007.16 1007.56 1007.96 1008.36
1006.97 1007.03 1006.98 1006.79 1006.42 1005.89 1005.21 1004.41 1003.55 1002.66 1001.80 1001.01 1000.31 999.71 999.21 998.80 998.46 998.18 997.95 997.75 997.59 997.49 997.45 997.50 997.65 997.92 998.30 998.79 999.37 1000.02 1000.71 1001.41 1002.10 1002.76 1003.37 1003.94 1004.45 1004.93 1005.38 1005.82 1006.25 1006.68 1007.12 1007.57
1006.71 1006.64 1006.48 1006.21 1005.80 1005.25 1004.57 1003.79 1002.94 1002.07 1001.22 1000.43 999.73 999.13 998.63 998.22 997.89 997.62 997.40 997.24 997.12 997.06 997.08 997.18 997.39 997.69 998.09 998.59 999.15 999.76 1000.39 1001.02 1001.62 1002.18 1002.71 1003.20 1003.66 1004.10 1004.53 1004.97 1005.41 1005.87 1006.34 1006.81
1006.27 1006.01 1005.71 1005.35 1004.90 1004.35 1003.71 1002.99 1002.23 1001.44 1000.67 999.95 999.30 998.74 998.26 997.86 997.54 997.29 997.10 996.97 996.90 996.89 996.96 997.12 997.37 997.70 998.11 998.59 999.12 999.66 1000.21 1000.75 1001.25 1001.73 1002.17 1002.59 1003.00 1003.41 1003.83 1004.27 1004.73 1005.20 1005.68 1006.17
1005.74 1005.27 1004.81 1004.34 1003.85 1003.33 1002.77 1002.16 1001.53 1000.89 1000.26 999.65 999.10 998.60 998.17 997.81 997.52 997.30 997.14 997.04 997.01 997.05 997.17 997.36 997.63 997.97 998.37 998.80 999.26 999.72 1000.18 1000.61 1001.01 1001.40 1001.77 1002.13 1002.50 1002.89 1003.31 1003.75 1004.22 1004.71 1005.20 1005.70
1005.25 1004.56 1003.93 1003.37 1002.85 1002.37 1001.91 1001.44 1000.98 1000.51 1000.05 999.59 999.16 998.76 998.41 998.10 997.85 997.66 997.53 997.47 997.47 997.54 997.69 997.89 998.16 998.47 998.81 999.18 999.54 999.90 1000.24 1000.56 1000.86 1001.16 1001.47 1001.79 1002.13 1002.52 1002.94 1003.40 1003.89 1004.39 1004.90 1005.40
1004.87 1003.98 1003.21 1002.57 1002.04 1001.62 1001.26 1000.95 1000.66 1000.37 1000.08 999.78 999.49 999.19 998.91 998.66 998.45 998.29 998.19 998.15 998.18 998.27 998.41 998.61 998.84 999.09 999.36 999.62 999.87 1000.11 1000.33 1000.54 1000.75 1000.97 1001.22 1001.51 1001.85 1002.24 1002.67 1003.15 1003.66 1004.19 1004.71 1005.22
1004.59 1003.56 1002.69 1002.01 1001.50 1001.13 1000.88 1000.71 1000.58 1000.46 1000.32 1000.16 999.98 999.77 999.55 999.35 999.17 999.04 998.96 998.93 998.97 999.05 999.18 999.35 999.52 999.70 999.87 1000.03 1000.16 1000.27 1000.37 1000.47 1000.60 1000.76 1000.96 1001.23 1001.57 1001.97 1002.43 1002.94 1003.48 1004.03 1004.57 1005.10
1004.36 1003.26 1002.35 1001.67 1001.19 1000.90 1000.75 1000.69 1000.68 1000.68 1000.66 1000.59 1000.48 1000.32 1000.15 999.97 999.81 999.69 999.61 999.59 999.62 999.70 999.81 999.93 1000.05 1000.15 1000.23 1000.27 1000.29 1000.29 1000.29 1000.31 1000.37 1000.48 1000.66 1000.92 1001.26 1001.68 1002.17 1002.70 1003.27 1003.85 1004.43 1004.99
Thickness
5862 5851 5846 5859 5870 5870 5866 5857 5849 5852 5866 5857 5844 5836 5839 5844 5844 5837 5832 5827 5822 5819 5820 5819 5815 5812 5807 5802 5797 5794 5791 5789 5787 5785 5782 5780 5779 5780 5780 5779 5777 5775 5774 5773
5846 5842 5863 5877 5879 5873 5865 5855 5851 5856 5865 5855 5845 5841 5848 5848 5847 5844 5838 5832 5828 5824 5821 5819 5816 5813 5809 5803 5800 5796 5793 5791 5789 5787 5785 5783 5782 5782 5782 5781 5778 5776 5775 5773
5837 5856 5875 5870 5866 5861 5860 5857 5855 5851 5856 5855 5845 5834 5840 5848 5854 5852 5848 5843 5838 5830 5824 5820 5817 5815 5812 5806 5803 5801 5797 5794 5792 5790 5788 5786 5784 5782 5780 5778 5777 5777 5776 5774
5845 5864 5865 5859 5858 5861 5850 5870 5869 5860 5846 5837 5843 5814 5829 5841 5842 5846 5847 5845 5842 5838 5832 5825 5821 5817 5815 5811 5809 5805 5800 5796 5794 5792 5789 5785 5780 5777 5777 5778 5778 5777 5776 5775
5840 5856 5854 5849 5858 5864 5860 5876 5870 5862 5851 5839 5842 5826 5825 5837 5827 5836 5844 5847 5847 5843 5838 5831 5827 5822 5820 5817 5813 5808 5803 5798 5796 5793 5790 5786 5783 5781 5781 5780 5778 5777 5776 5775
5847 5865 5864 5860 5868 5871 5871 5865 5859 5856 5846 5820 5838 5831 5816 5828 5833 5838 5847 5850 5849 5848 5843 5838 5833 5828 5823 5821 5816 5811 5804 5799 5797 5794 5791 5787 5784 5782 5779 5778 5776 5776 5775 5775
5826 5844 5861 5865 5851 5858 5857 5836 5813 5804 5806 5815 5850 5839 5834 5850 5857 5855 5854 5854 5853 5851 5846 5839 5833 5828 5824 5821 5817 5813 5805 5800 5798 5794 5791 5789 5785 5782 5779 5777 5776 5775 5774 5773
5808 5815 5844 5854 5847 5841 5843 5836 5808 5790 5798 5822 5841 5832 5845 5867 5869 5868 5863 5861 5857 5853 5849 5843 5837 5832 5827 5823 5819 5814 5807 5802 5799 5795 5792 5790 5787 5783 5781 5779 5778 5776 5774 5774
5813 5817 5851 5857 5859 5850 5834 5834 5846 5827 5822 5817 5827 5834 5848 5865 5861 5862 5859 5859 5857 5855 5851 5845 5839 5834 5829 5825 5821 5817 5810 5804 5800 5797 5793 5790 5787 5784 5782 5780 5779 5777 5775 5774
5823 5811 5836 5850 5850 5849 5848 5844 5833 5818 5798 5795 5814 5818 5823 5838 5849 5855 5856 5856 5857 5856 5853 5847 5842 5837 5832 5827 5824 5820 5814 5807 5802 5798 5794 5791 5787 5784 5782 5780 5777 5776 5774 5772
5825 5806 5817 5831 5822 5823 5831 5831 5830 5828 5826 5805 5796 5811 5850 5845 5850 5855 5856 5858 5856 5854 5852 5847 5842 5836 5833 5829 5825 5819 5814 5807 5802 5799 5794 5791 5787 5785 5782 5779 5777 5775 5772 5770
5817 5809 5801 5818 5839 5845 5838 5832 5830 5811 5810 5819 5809 5814 5860 5856 5858 5858 5857 5856 5854 5853 5852 5847 5842 5836 5830 5826 5824 5818 5814 5808 5803 5799 5794 5789 5786 5783 5780 5777 5775 5774 5771 5768
5806 5795 5779 5790 5810 5825 5824 5832 5834 5831 5821 5813 5805 5813 5855 5855 5855 5856 5853 5851 5848 5846 5846 5843 5838 5832 5828 5825 5821 5816 5813 5808 5803 5798 5793 5788 5785 5781 5778 5776 5774 5771 5768 5765
5802 5787 5781 5778 5796 5811 5810 5820 5829 5824 5809 5807 5812 5818 5834 5840 5843 5844 5843 5843 5843 5840 5838 5835 5831 5828 5826 5823 5819 5815 5811 5808 5803 5797 5792 5787 5783 5780 5777 5774 5772 5769 5765 5762
5792 5777 5784 5796 5809 5814 5811 5814 5821 5820 5818 5811 5817 5822 5828 5836 5838 5838 5837 5836 5833 5832 5830 5827 5825 5823 5821 5818 5815 5813 5809 5806 5802 5795 5789 5785 5782 5778 5774 5770 5768 5765 5762 5759
5779 5769 5775 5779 5796 5802 5802 5812 5817 5819 5820 5820 5822 5823 5839 5841 5838 5831 5827 5825 5823 5823 5823 5822 5820 5817 5815 5813 5810 5808 5804 5801 5797 5791 5786 5782 5779 5774 5770 5765 5762 5760 5757 5754
5765 5759 5755 5761 5781 5783 5778 5800 5808 5811 5821 5820 5812 5818 5830 5825 5820 5818 5821 5821 5818 5817 5817 5814 5813 5812 5810 5809 5807 5803 5800 5797 5792 5786 5782 5778 5774 5769 5766 5762 5758 5754 5751 5748
5753 5749 5750 5753 5759 5744 5783 5815 5815 5810 5814 5819 5820 5821 5820 5818 5817 5820 5821 5818 5815 5814 5812 5811 5809 5808 5807 5805 5803 5800 5796 5791 5785 5780 5776 5773 5769 5765 5761 5757 5753 5749 5745 5741
5756 5745 5741 5742 5741 5751 5778 5799 5804 5796 5795 5813 5811 5812 5813 5815 5809 5805 5812 5814 5811 5810 5808 5807 5805 5803 5800 5798 5796 5793 5788 5784 5779 5774 5771 5767 5764 5759 5755 5751 5747 5744 5739 5735
5749 5746 5736 5733 5727 5732 5763 5793 5808 5796 5775 5801 5805 5801 5803 5801 5784 5786 5800 5805 5804 5803 5802 5800 5798 5795 5791 5790 5788 5783 5779 5775 5771 5768 5766 5763 5759 5754 5748 5745 5741 5737 5733 5728
5728 5727 5724 5723 5724 5742 5773 5789 5789 5760 5764 5795 5798 5796 5794 5789 5788 5790 5794 5794 5794 5793 5792 5791 5788 5784 5782 5782 5778 5773 5770 5766 5766 5764 5760 5756 5753 5748 5743 5739 5734 5730 5726 5722
5724 5721 5719 5721 5716 5728 5769 5773 5764 5765 5783 5788 5789 5790 5787 5785 5786 5784 5782 5781 5783 5781 5781 5779 5776 5774 5774 5773 5769 5764 5761 5761 5759 5756 5752 5748 5745 5742 5737 5732 5728 5724 5720 5715
5728 5730 5729 5726 5727 5744 5759 5760 5767 5773 5772 5775 5778 5781 5780 5776 5773 5772 5771 5771 5772 5771 5770 5769 5767 5764 5763 5763 5760 5755 5753 5754 5751 5747 5744 5741 5738 5734 5730 5726 5722 5718 5714 5711
5723 5733 5729 5724 5729 5741 5748 5754 5759 5764 5765 5768 5771 5772 5771 5766 5764 5762 5761 5761 5761 5760 5760 5760 5757 5753 5751 5752 5751 5748 5747 5746 5743 5738 5735 5732 5729 5725 5722 5719 5716 5711 5707 5704
5708 5715 5715 5714 5721 5729 5736 5742 5747 5752 5757 5759 5760 5761 5760 5758 5755 5753 5751 5751 5751 5750 5750 5749 5747 5744 5742 5743 5741 5741 5740 5737 5733 5730 5728 5725 5722 5717 5712 5707 5703 5701 5695 5693
5700 5702 5700 5701 5713 5716 5719 5732 5739 5739 5741 5744 5746 5746 5749 5748 5745 5744 5741 5741 5740 5739 5740 5738 5735 5734 5733 5733 5731 5731 5731 5728 5724 5721 5719 5718 5716 5711 5706 5700 5692 5686 5685 5683